EW2957 Weather Reports


Display with metric or nautical units.
time (UTC)temp
F
wind
direction
speed
MPH
gust
MPH
rain 1hr
in
rain 24hr
in
rain mn
in
humidity
%
barometer
mb
20260503220042 79 252 0.0 0.0 0.00 0.00 0.00 44 1010.3
20260503214532 79 218 0.0 0.0 0.00 0.00 0.00 44 1010.4
20260503213033 80 315 0.0 0.0 0.00 0.00 0.00 42 1010.4
20260503211513 80 313 0.0 1.0 0.00 0.00 0.00 42 1010.5
20260503210010 79 252 0.0 0.0 0.00 0.00 0.00 43 1010.7
20260503204556 79 340 0.0 0.0 0.00 0.00 0.00 43 1010.8
20260503203111 79 271 0.0 0.0 0.00 0.00 0.00 43 1010.9
20260503201552 79 178 0.0 0.0 0.00 0.00 0.00 43 1011.1
20260503200050 78 242 0.0 0.0 0.00 0.00 0.00 44 1011.3
20260503194547 78 267 0.0 0.0 0.00 0.00 0.00 45 1011.5
20260503193043 78 273 0.0 1.0 0.00 0.00 0.00 45 1011.8
20260503191546 77 347 0.0 0.0 0.00 0.00 0.00 46 1011.9
20260503190042 76 33 0.0 0.0 0.00 0.00 0.00 48 1012.1
20260503184524 76 257 0.0 0.0 0.00 0.00 0.00 47 1012.2
20260503183018 75 337 0.0 0.0 0.00 0.00 0.00 51 1012.4
20260503181514 74 265 0.0 0.0 0.00 0.00 0.00 52 1012.4
20260503180013 73 318 0.0 0.0 0.00 0.00 0.00 52 1012.5
20260503174509 74 246 0.0 0.0 0.00 0.00 0.00 54 1012.6
20260503173007 73 258 0.0 0.0 0.00 0.00 0.00 53 1012.7
20260503171504 72 54 0.0 0.0 0.00 0.00 0.00 55 1012.7
20260503081602 57 257 0.0 0.0 0.00 0.00 0.00 71 1013.3
20260503071553 59 257 0.0 0.0 0.00 0.00 0.00 67 1013.1
20260503054552 61 257 0.0 0.0 0.00 0.00 0.00 63 1013.1
20260503053038 62 257 0.0 0.0 0.00 0.00 0.00 62 1013.1
20260503051531 62 257 0.0 0.0 0.00 0.00 0.00 61 1013.1
20260503050029 63 257 0.0 0.0 0.00 0.00 0.00 60 1013.0
20260503044529 63 257 0.0 0.0 0.00 0.00 0.00 60 1012.9
20260503043025 64 257 0.0 0.0 0.00 0.00 0.00 59 1012.8
20260503041516 65 282 0.0 0.0 0.00 0.00 0.00 59 1012.6
20260503040026 66 282 0.0 0.0 0.00 0.00 0.00 57 1012.4
20260503034515 67 224 0.0 0.0 0.00 0.00 0.00 56 1012.1
20260503033014 68 221 0.0 0.0 0.00 0.00 0.00 56 1012.0
20260503031514 69 221 0.0 0.0 0.00 0.00 0.00 54 1011.9
20260503030013 70 204 0.0 0.0 0.00 0.00 0.00 53 1011.8
20260503024513 71 313 0.0 0.0 0.00 0.00 0.00 51 1011.7
20260503023001 71 206 0.0 0.0 0.00 0.00 0.00 50 1011.6
20260503021601 73 19 0.0 2.0 0.00 0.00 0.00 48 1011.6
20260503020100 74 310 0.0 0.0 0.00 0.00 0.00 46 1011.5
20260503014600 74 324 0.0 0.0 0.00 0.00 0.00 48 1011.6
20260503013056 74 355 0.0 0.0 0.00 0.00 0.00 50 1011.7
20260503011557 75 330 0.0 0.0 0.00 0.00 0.00 49 1011.7
20260503010055 75 321 0.0 0.0 0.00 0.00 0.00 50 1011.8
20260503004553 75 286 0.0 1.0 0.00 0.00 0.00 51 1011.9
20260503003041 75 35 0.0 0.0 0.00 0.00 0.00 51 1011.9
20260503001539 75 28 0.0 0.0 0.00 0.00 0.00 51 1011.9
20260503000038 75 232 0.0 0.0 0.00 0.00 0.00 50 1012.0
20260502234548 75 345 0.0 0.0 0.00 0.00 0.00 50 1012.1
20260502233034 75 279 0.0 0.0 0.00 0.00 0.00 50 1012.3
20260502231532 76 259 0.0 0.0 0.00 0.00 0.00 50 1012.6
20260502230028 75 334 0.0 0.0 0.00 0.00 0.00 50 1012.9
20260502224528 75 255 0.0 0.0 0.00 0.00 0.00 50 1013.0
20260502223009 75 360 0.0 0.0 0.00 0.00 0.00 49 1013.1
20260502221506 75 279 0.0 0.0 0.00 0.00 0.00 49 1013.4